AirNav   Air Wisconsin pilot careers
 
 357 users online  

2J0 Wakulla County Airport
Panacea, Florida, USA

GOING TO PANACEA?


FAA INFORMATION EFFECTIVE 03 JANUARY 2019

Location

FAA Identifier: 2J0
Lat/Long: 29-59-22.0400N / 084-23-43.4100W
29-59.367333N / 084-23.723500W
29.9894556 / -84.3953917
(estimated)
Elevation: 11 ft. / 3.4 m (surveyed)
Variation: 01W (1985)
From city: 3 miles S of PANACEA, FL
Time zone: UTC -5 (UTC -4 during Daylight Saving Time)
Zip code: 32346

Airport Operations

Airport use: Open to the public
Activation date: 06/1966
Control tower: no
ARTCC: JACKSONVILLE CENTER
FSS: GAINESVILLE FLIGHT SERVICE STATION
NOTAMs facility: GNV (NOTAM-D service available)
Attendance: UNATNDD
GROUND ACCESS BY PRIOR REQUEST, 850-321-0373.
Wind indicator: lighted
Segmented circle: no
Lights: ACTVT LIRL RY 18/36 - CTAF.
Beacon: white-green (lighted land airport)
Operates sunset to sunrise.

Airport Communications

CTAF: 122.9

Nearby radio navigation aids

VOR radial/distance  VOR name  Freq  Var
SZWr180/34.0SEMINOLE VORTAC117.5002E

 
NDB name  Hdg/Dist  Freq  Var  ID
APALACHICOLA067/36.634903WAAF .- .- ..-.

Airport Services

Parking: tiedowns
Airframe service: NONE
Powerplant service: NONE
Bottled oxygen: NONE
Bulk oxygen: NONE

Runway Information

Runway 18/36

Dimensions: 2590 x 70 ft. / 789 x 21 m
Surface: turf, in fair condition
RY 18/36 SOFT TURF.
Runway edge lights: low intensity
RY 18/36 NSTD LIRL.
Runway edge markings: 18/36 LENGTH AND WIDTH AND DSPLCD THLDS MKD WITH WHITE TIRES.
RUNWAY 18  RUNWAY 36
Latitude: 29-59.581000N29-59.153667N
Longitude: 084-23.723500W084-23.723500W
Traffic pattern: leftleft
Displaced threshold: 200 ft.375 ft.
Markings: NSTDNSTD
Obstructions: 15 ft. road, 102 ft. from runway, 125 ft. left of centerline, 6:1 slope to clear
RY 18 APPROACH SLOPE 20:1 TO THE DSPLCD THLD.
31 ft. tree, 340 ft. from runway, 60 ft. right of centerline, 11:1 slope to clear
RY 36 APCH RATIO 20:1 TO DSPLCD THLD DUE TO 52 FT TREE 659 FT FROM END OF RY 85 FT R OF CNTRLN.

Airport Ownership and Management from official FAA records

Ownership: Publicly-owned
Owner: WAKULLA COUNTY
PO BOX 1263
CRAWFORDVILLE, FL 32326-1263
Phone 850-926-0919
CONTACT PERSON: DAVID EDWARDS
Manager: STEVEN FULTS
35 MONOCOUPE CIRCLE
PANACEA, FL 32346
Phone (850) 984-3500
ALT PHONE 850-984-3500.

Airport Operational Statistics

Aircraft based on the field: 3
Single engine airplanes: 2
Ultralights: 1
    
Aircraft operations: avg 46/week *
84% local general aviation
13% transient general aviation
3% military
* for 12-month period ending 27 April 2017

Additional Remarks

AER 36 HAS 10-25 FT TREES AND 5 FT FENCE.
50 FT TREES WEST SIDE OF RY 100 FT FROM CNTRLN.
TREES, BLDGS, WINDSOCK POLES, LIGHTNING DETECTION SYSTEM, BERMS AND UTILITY POLES 75-125 FT EAST OF RY 18/36.
TREES 100-125 FT WEST OF RY 18/36.
FOR CD CTC TALLAHASSEE APCH AT 850-942-8311. IF UNA, CTC FSS.

Instrument Procedures

There are no published instrument procedures at 2J0.

Some nearby airports with instrument procedures:

KTLH - Tallahassee International Airport (25 nm N)
KAAF - Apalachicola Regional Airport-Cleve Randolph Field (36 nm SW)
2J9 - Quincy Municipal Airport (37 nm N)
40J - Perry-Foley Airport (43 nm E)
70J - Cairo-Grady County Airport (55 nm N)
 
Loc | Ops | Rwys | IFR | FBO | Links
Com | Nav | Svcs | Stats | Notes
Area around 2J0 (Wakulla County Airport)
 
Road maps at: MapQuest Bing Google
 
Aerial photo
WARNING: Photo may not be current or correct
Aerial photo of 2J0 (Wakulla County Airport)
Taken in May 2016
looking northwest

Do you have a better or more recent aerial photo of Wakulla County Airport that you would like to share? If so, please send us your photo.

 
Sectional chart

 
Airport distance calculator
Flying to Wakulla County Airport? Find the distance to fly.

From to 2J0

Sunrise and sunset
Times for 23-Jan-2019
 Local
(UTC-5)
 Zulu
(UTC)
Morning civil twilight07:0812:08
Sunrise07:3312:33
Sunset18:0623:06
Evening civil twilight18:3123:31

Current date and time
Zulu (UTC)  23-Jan-2019 07:35:13
Local (UTC-5)  23-Jan-2019 02:35:13
 
METAR
KTLH 
25nm N 
230653Z AUTO 10010KT 10SM OVC065 16/12 A3027 RMK AO2 SLP248 T01560117
KAAF 
37nm SW 
230653Z AUTO 12011KT 10SM SCT065 17/12 A3022 RMK AO2 SLP233 T01670122 $
K2J9 
37nm N 
230715Z AUTO 11007G14KT 10SM FEW047 FEW055 OVC065 15/11 A3027 RMK AO2
K40J 
43nm E 
230715Z AUTO 10009KT 10SM OVC060 15/12 A3030 RMK AO2 T01510119
TAF
KTLH 
25nm N 
230521Z 2306/2406 12010KT P6SM OVC025 FM231400 14012KT P6SM BKN025 FM231800 17015G25KT P6SM VCSH SCT025 BKN050 FM240000 17012G25KT 4SM -SHRA BKN015
NOTAMs
Click for the latest NOTAMs
NOTAMs are issued by the DoD/FAA and will open in a separate window not controlled by AirNav.

 

 
 

Would you like to see your business listed on this page?

 If your business provides an interesting product or service to pilots, flight crews, aircraft, or users of the Wakulla County Airport, you should consider listing it here.  To start the listing process, click on the button below
 
Add a business
 

Other Pages about Wakulla County Airport

www.mywakulla.com/...
 
Update a link
 
Copyright © AirNav, LLC. All rights reserved. Privacy Policy  Contact